Location: Ertinghausen
(51.6624°N, 9.7874°E)
Time: 13:24:18
(UTC+00:00)

CZ-2C R/B - Pass Details

Date: 18 August 2024
Orbit: 703 x 903 km, 98.2° (Epoch: 14 September)

Event Time Altitude Azimuth Distance (km) Brightness Sun altitude
Rises 02:49:24 0° 6° (N) 3,227 7.0 -11.7°
Reaches altitude 10° 02:51:59 10° 354° (N) 2,328 6.0 -11.4°
Maximum altitude 02:56:09 26° 300° (WNW) 1,539 4.4 -10.9°
Enters shadow 02:59:57 12° 249° (WSW) 2,253 4.8 -10.4°
